This is the latest recevied weather packets stored in our database for station/object DB0MOE-6. If no packets are shown the sender has not sent any weather packets the latest 1 day(s).
| Time | Temp. | Humidity | Pressure | Rain* | Wind** | Luminosity | Snow |
|---|---|---|---|---|---|---|---|
| 1778029521 | 13.33° C | 79% | 987.5 hPa | 0 mm | 0.45 m/s, 98° | - | - |
| 1778029461 | 13.33° C | 80% | 987.5 hPa | 0 mm | 0 m/s | - | - |
| 1778029401 | 13.33° C | 79% | 987.5 hPa | 0 mm | 0 m/s | - | - |
| 1778029341 | 13.33° C | 79% | 987.4 hPa | 0 mm | 0 m/s | - | - |
| 1778029281 | 13.33° C | 79% | 987.3 hPa | 0 mm | 0 m/s | - | - |
| 1778029221 | 13.33° C | 79% | 987.4 hPa | 0 mm | 0 m/s | - | - |
| 1778029161 | 13.33° C | 79% | 987.3 hPa | 0 mm | 0 m/s | - | - |
| 1778029101 | 13.33° C | 79% | 987.4 hPa | 0 mm | 0 m/s | - | - |
| 1778029041 | 13.33° C | 78% | 987.4 hPa | 0 mm | 0 m/s | - | - |
| 1778028981 | 13.89° C | 78% | 987.3 hPa | 0 mm | 0.45 m/s, 246° | - | - |
| 1778028923 | 13.89° C | 78% | 987.3 hPa | 0 mm | 0.45 m/s, 119° | - | - |
| 1778028863 | 13.89° C | 78% | 987.3 hPa | 0 mm | 0.45 m/s, 116° | - | - |
| 1778028803 | 13.89° C | 78% | 987.2 hPa | 0 mm | 0.45 m/s, 123° | - | - |
| 1778028743 | 13.89° C | 77% | 987.4 hPa | 0 mm | 0.45 m/s, 135° | - | - |
| 1778028683 | 13.89° C | 78% | 987.3 hPa | 0 mm | 0 m/s | - | - |
| 1778028623 | 13.89° C | 77% | 987.3 hPa | 0 mm | 0.45 m/s, 87° | - | - |
| 1778028563 | 13.89° C | 77% | 987.3 hPa | 0 mm | 0 m/s | - | - |
| 1778028503 | 13.89° C | 76% | 987.3 hPa | 0 mm | 0.45 m/s, 171° | - | - |
| 1778028442 | 13.89° C | 77% | 987.4 hPa | 0 mm | 0.45 m/s, 135° | - | - |
| 1778028382 | 13.89° C | 77% | 987.3 hPa | 0 mm | 0.45 m/s, 125° | - | - |
| 1778028322 | 13.89° C | 77% | 987.2 hPa | 0 mm | 0.45 m/s, 112° | - | - |
| 1778028262 | 13.89° C | 77% | 987.4 hPa | 0 mm | 0.45 m/s, 122° | - | - |
| 1778028202 | 13.89° C | 77% | 987.4 hPa | 0 mm | 0.45 m/s, 155° | - | - |
| 1778028142 | 13.89° C | 77% | 987.4 hPa | 0 mm | 0.45 m/s, 347° | - | - |
| 1778028082 | 13.89° C | 77% | 987.4 hPa | 0 mm | 0.89 m/s, 37° | - | - |
* Rain latest hour (hover to see other rain measurements)
** Current wind speed in m/s (hover to see current wind gust speed)